IUS R/B(1)

基本信息
目录编号:
20356
目录名称:
IUS R/B(1)
国际标识:
1989-090C
轨道中心:
EARTH
物体状态:
在轨
发射日期:
1989-11-23 UTC
国别:
美国 (US)
轨道信息
数据来源: 国际轨道数据
星历时间: 2026-09-04T11:20:53+0800
半长轴: 18144.359km
偏心率: 0.6357821
轨道倾角: 27.486°
近地点辐角: 248.898°
升交点赤经: 248.801°
平近点角: 35.020°
近地点: 230.363km
远地点: 23302.081km
周期: 405.389分钟
每日圈数: 3.552142
详细信息
发射场:
AFETR
轨道高度:
LEO
数据来源:
AOE Integration Group
参考系:
TEME
时间系统:
UTC
历元类型:
SGP4
2D轨道图
3D轨道图
轨道高度分析图
轨道倾角分析图
轨道综合分析图
查看轨道综合分析图